2021-033F (48253 NORAD) Tracking and Keplerian Element Data

This shows tracking and keplerian element data for the satellite.

Feedback or suggestion? Click here.




ElementValue
Catalog48253
Name2021-033F
Epoch Orbit299
Epoch Day136.94891965
Epoch Year2021
RAAN212.4614
Inclination97.3967
Eccentricity0.0011052
Argument of Perigee197.8266
Mean Anonmoly338.7578
Mean Motion15.21248057
Decay Rate1.133E-05
L11 48253U 21033F 21136.94891965 .00001133 00000-0 53740-4 0 9996
L22 48253 97.3967 212.4614 0011052 197.8266 338.7578 15.21248057 2999

Live tracking and technical data element details for 2021-033F (NORAD 48253). 2021-033F can be tracked NOW for your location showing map with azimuth and elevation plus other details from your city location.

Track the satellite on the map from your city or location and see movement details for azimuth, elevation, latitude, longitude, range, height, and movement on the map or in text.







IsCatalogInMostPopularTable: catalog: 48253, numindb: 4
Update: records affected: 1



GetName: 48253 2021-033F

Hit Count: updated at: Mon, 17 May 2021 15:14:16 GMT